Year,Month,Day,Hour,Minute,Value (Times are PST for barometer in hPa)
2022,05,25,00,00,988.15
2022,05,25,00,01,988.15
2022,05,25,00,02,988.15
2022,05,25,00,03,988.15
2022,05,25,00,04,988.15
2022,05,25,00,05,988.15
2022,05,25,00,06,989.91
2022,05,25,00,07,990.01
2022,05,25,00,08,990.01
2022,05,25,00,09,990.01
2022,05,25,00,10,990.01
2022,05,25,00,11,990.01
2022,05,25,00,12,982.03
2022,05,25,00,13,981.14
2022,05,25,00,14,981.14
2022,05,25,00,15,981.14
2022,05,25,00,16,984.40
2022,05,25,00,17,984.18
2022,05,25,00,18,984.12
2022,05,25,00,19,984.12
2022,05,25,00,20,984.12
2022,05,25,00,21,984.12
2022,05,25,00,22,984.12
2022,05,25,00,23,984.12
2022,05,25,00,24,984.12
2022,05,25,00,25,985.46
2022,05,25,00,26,985.61
2022,05,25,00,27,985.61
2022,05,25,00,28,985.61
2022,05,25,00,29,985.61
2022,05,25,00,30,987.47
2022,05,25,00,31,987.57
2022,05,25,00,32,987.57
2022,05,25,00,33,983.98
2022,05,25,00,34,983.58
2022,05,25,00,35,983.58
2022,05,25,00,36,983.58
2022,05,25,00,37,983.58
2022,05,25,00,38,983.58
2022,05,25,00,39,983.58
2022,05,25,00,40,983.58
2022,05,25,00,41,983.58
2022,05,25,00,42,983.58
2022,05,25,00,43,981.90
2022,05,25,00,44,981.71
2022,05,25,00,45,981.71
2022,05,25,00,46,981.71
2022,05,25,00,47,981.71
2022,05,25,00,48,981.71
2022,05,25,00,49,981.71
2022,05,25,00,50,982.23
2022,05,25,00,51,981.67
2022,05,25,00,52,981.61
2022,05,25,00,53,981.61
2022,05,25,00,54,981.61
2022,05,25,00,55,981.61
2022,05,25,00,56,981.61
2022,05,25,00,57,984.48
2022,05,25,00,58,984.80
2022,05,25,00,59,984.80
2022,05,25,01,00,984.80
2022,05,25,01,01,984.80
2022,05,25,01,02,984.80
2022,05,25,01,03,984.80
2022,05,25,01,04,984.80
2022,05,25,01,05,984.80
2022,05,25,01,06,984.80
2022,05,25,01,07,985.17
2022,05,25,01,08,985.24
2022,05,25,01,09,985.24
2022,05,25,01,10,985.24
2022,05,25,01,11,985.24
2022,05,25,01,12,985.24
2022,05,25,01,13,985.24
2022,05,25,01,14,985.24
2022,05,25,01,15,985.24
2022,05,25,01,16,985.24
2022,05,25,01,17,985.24
2022,05,25,01,18,985.24
2022,05,25,01,19,985.24
2022,05,25,01,20,985.24
2022,05,25,01,21,985.24
2022,05,25,01,22,985.24
2022,05,25,01,23,985.24
2022,05,25,01,24,985.24
2022,05,25,01,25,985.24
2022,05,25,01,26,984.72
2022,05,25,01,27,984.69
2022,05,25,01,28,984.69
2022,05,25,01,29,984.69
2022,05,25,01,30,984.69
2022,05,25,01,31,988.66
2022,05,25,01,32,989.10
2022,05,25,01,33,989.10
2022,05,25,01,34,989.10
2022,05,25,01,35,989.10
2022,05,25,01,36,988.60
2022,05,25,01,37,988.55
2022,05,25,01,38,988.55
2022,05,25,01,39,988.55
2022,05,25,01,40,988.55
2022,05,25,01,41,989.29
2022,05,25,01,42,989.37
2022,05,25,01,43,989.37
2022,05,25,01,44,989.37
2022,05,25,01,45,989.37
2022,05,25,01,46,989.37
2022,05,25,01,47,986.65
2022,05,25,01,48,986.00
2022,05,25,01,49,985.98
2022,05,25,01,50,985.98
2022,05,25,01,51,985.98
2022,05,25,01,52,985.98
2022,05,25,01,53,985.98
2022,05,25,01,54,986.86
2022,05,25,01,55,986.96
2022,05,25,01,56,986.96
2022,05,25,01,57,986.96
2022,05,25,01,58,986.96
2022,05,25,01,59,986.96
2022,05,25,02,00,986.96
2022,05,25,02,01,986.96
2022,05,25,02,02,986.96
2022,05,25,02,03,986.96
2022,05,25,02,04,986.96
2022,05,25,02,05,986.96
2022,05,25,02,06,986.96
2022,05,25,02,07,986.96
2022,05,25,02,08,984.03
2022,05,25,02,09,983.59
2022,05,25,02,10,983.58
2022,05,25,02,11,985.62
2022,05,25,02,12,985.85
2022,05,25,02,13,984.99
2022,05,25,02,14,984.90
2022,05,25,02,15,986.64
2022,05,25,02,16,987.10
2022,05,25,02,17,987.13
2022,05,25,02,18,987.13
2022,05,25,02,19,987.13
2022,05,25,02,20,987.13
2022,05,25,02,21,987.13
2022,05,25,02,22,987.13
2022,05,25,02,23,987.13
2022,05,25,02,24,987.13
2022,05,25,02,25,987.13
2022,05,25,02,26,987.13
2022,05,25,02,27,987.13
2022,05,25,02,28,987.13
2022,05,25,02,29,987.13
2022,05,25,02,30,991.13
2022,05,25,02,31,991.84
2022,05,25,02,32,986.48
2022,05,25,02,33,985.85
2022,05,25,02,34,985.85
2022,05,25,02,35,988.06
2022,05,25,02,36,988.32
2022,05,25,02,37,988.32
2022,05,25,02,38,988.32
2022,05,25,02,39,988.32
2022,05,25,02,40,988.32
2022,05,25,02,41,995.21
2022,05,25,02,42,995.97
2022,05,25,02,43,995.97
2022,05,25,02,44,995.97
2022,05,25,02,45,995.97
2022,05,25,02,46,995.97
2022,05,25,02,47,995.97
2022,05,25,02,48,989.09
2022,05,25,02,49,987.88
2022,05,25,02,50,987.88
2022,05,25,02,51,987.88
2022,05,25,02,52,987.88
2022,05,25,02,53,987.88
2022,05,25,02,54,987.88
2022,05,25,02,55,987.88
2022,05,25,02,56,987.88
2022,05,25,02,57,987.88
2022,05,25,02,58,987.88
2022,05,25,02,59,987.88
2022,05,25,03,00,987.88
2022,05,25,03,01,987.88
2022,05,25,03,02,987.88
2022,05,25,03,06,987.88
2022,05,25,03,07,987.88
2022,05,25,03,08,987.88
2022,05,25,03,09,987.88
2022,05,25,03,10,987.88
2022,05,25,03,11,987.88
2022,05,25,03,12,987.88
2022,05,25,03,13,987.88
2022,05,25,03,14,987.88
2022,05,25,03,15,987.88
2022,05,25,03,16,987.88
2022,05,25,03,17,987.88
2022,05,25,03,18,987.88
2022,05,25,03,19,987.88
2022,05,25,03,20,987.88
2022,05,25,03,21,987.88
2022,05,25,03,22,987.88
2022,05,25,03,23,987.88
2022,05,25,03,24,987.88
2022,05,25,03,25,987.88
2022,05,25,03,26,987.88
2022,05,25,03,27,987.81
2022,05,25,03,28,986.50
2022,05,25,03,29,986.73
2022,05,25,03,30,986.73
2022,05,25,03,31,986.21
2022,05,25,03,32,981.51
2022,05,25,03,33,981.51
2022,05,25,03,34,981.51
2022,05,25,03,35,981.88
2022,05,25,03,36,985.20
2022,05,25,03,37,985.20
2022,05,25,03,38,985.20
2022,05,25,03,39,985.20
2022,05,25,03,40,985.20
2022,05,25,03,41,985.20
2022,05,25,03,42,985.56
2022,05,25,03,43,992.45
2022,05,25,03,44,992.45
2022,05,25,03,45,992.45
2022,05,25,03,46,992.45
2022,05,25,03,47,992.45
2022,05,25,03,48,993.06
2022,05,25,03,49,998.58
2022,05,25,03,50,998.58
2022,05,25,03,51,998.58
2022,05,25,03,52,998.58
2022,05,25,03,53,998.58
2022,05,25,03,54,998.58
2022,05,25,03,55,998.58
2022,05,25,03,56,998.06
2022,05,25,03,57,988.62
2022,05,25,03,58,988.62
2022,05,25,03,59,988.62
2022,05,25,04,00,988.62
2022,05,25,04,01,988.62
2022,05,25,04,02,988.62
2022,05,25,04,03,988.65
2022,05,25,04,04,989.16
2022,05,25,04,05,989.16
2022,05,25,04,06,989.16
2022,05,25,04,07,989.03
2022,05,25,04,08,986.55
2022,05,25,04,09,986.16
2022,05,25,04,10,985.74
2022,05,25,04,11,985.74
2022,05,25,04,12,985.74
2022,05,25,04,13,985.74
2022,05,25,04,14,985.74
2022,05,25,04,15,985.74
2022,05,25,04,16,985.74
2022,05,25,04,17,985.74
2022,05,25,04,18,985.84
2022,05,25,04,19,987.64
2022,05,25,04,20,987.64
2022,05,25,04,21,987.70
2022,05,25,04,22,988.76
2022,05,25,04,23,988.76
2022,05,25,04,24,988.87
2022,05,25,04,25,991.03
2022,05,25,04,26,991.03
2022,05,25,04,27,991.00
2022,05,25,04,28,990.35
2022,05,25,04,29,990.35
2022,05,25,04,30,990.35
2022,05,25,04,31,990.35
2022,05,25,04,32,990.35
2022,05,25,04,33,990.35
2022,05,25,04,34,990.35
2022,05,25,04,35,990.35
2022,05,25,04,36,990.35
2022,05,25,04,37,990.35
2022,05,25,04,38,990.35
2022,05,25,04,39,990.35
2022,05,25,04,40,990.38
2022,05,25,04,41,990.96
2022,05,25,04,42,990.86
2022,05,25,04,43,989.03
2022,05,25,04,44,989.03
2022,05,25,04,45,989.06
2022,05,25,04,46,989.70
2022,05,25,04,47,989.44
2022,05,25,04,48,989.44
2022,05,25,04,49,989.82
2022,05,25,04,50,997.07
2022,05,25,04,51,996.72
2022,05,25,04,52,996.72
2022,05,25,04,53,996.72
2022,05,25,04,54,996.72
2022,05,25,04,55,996.72
2022,05,25,04,56,996.72
2022,05,25,04,57,996.25
2022,05,25,04,58,987.40
2022,05,25,04,59,987.40
2022,05,25,05,00,987.40
2022,05,25,05,01,987.40
2022,05,25,05,02,987.40
2022,05,25,05,03,987.40
2022,05,25,05,04,987.40
2022,05,25,05,05,987.40
2022,05,25,05,06,987.40
2022,05,25,05,07,987.40
2022,05,25,05,08,987.40
2022,05,25,05,09,987.40
2022,05,25,05,10,987.40
2022,05,25,05,11,987.40
2022,05,25,05,12,987.40
2022,05,25,05,13,987.40
2022,05,25,05,14,987.40
2022,05,25,05,15,987.40
2022,05,25,05,16,987.40
2022,05,25,05,17,987.40
2022,05,25,05,18,987.40
2022,05,25,05,19,987.40
2022,05,25,05,20,987.40
2022,05,25,05,21,987.40
2022,05,25,05,22,987.40
2022,05,25,05,23,987.85
2022,05,25,05,24,996.48
2022,05,25,05,25,996.48
2022,05,25,05,26,996.48
2022,05,25,05,27,996.48
2022,05,25,05,28,996.58
2022,05,25,05,29,998.48
2022,05,25,05,30,998.48
2022,05,25,05,31,998.48
2022,05,25,05,32,998.15
2022,05,25,05,33,991.81
2022,05,25,05,34,991.65
2022,05,25,05,35,988.63
2022,05,25,05,36,988.83
2022,05,25,05,37,988.83
2022,05,25,05,38,988.98
2022,05,25,05,39,991.94
2022,05,25,05,40,991.94
2022,05,25,05,41,991.94
2022,05,25,05,42,991.94
2022,05,25,05,43,991.71
2022,05,25,05,44,987.34
2022,05,25,05,45,987.34
2022,05,25,05,46,987.03
2022,05,25,05,47,987.13
2022,05,25,05,48,989.06
2022,05,25,05,49,989.06
2022,05,25,05,50,989.06
2022,05,25,05,51,989.06
2022,05,25,05,52,989.06
2022,05,25,05,53,989.06
2022,05,25,05,54,989.06
2022,05,25,05,55,989.06
2022,05,25,05,56,989.06
2022,05,25,05,57,989.06
2022,05,25,05,58,989.06
2022,05,25,05,59,989.06
2022,05,25,06,00,989.06
2022,05,25,06,01,989.23
2022,05,25,06,02,992.42
2022,05,25,06,03,992.42
2022,05,25,06,04,992.42
2022,05,25,06,05,992.41
2022,05,25,06,06,992.21
2022,05,25,06,07,992.21
2022,05,25,06,08,992.21
2022,05,25,06,09,992.21
2022,05,25,06,10,992.21
2022,05,25,06,11,991.69
2022,05,25,06,12,991.50
2022,05,25,06,13,991.50
2022,05,25,06,14,991.50
2022,05,25,06,15,991.50
2022,05,25,06,16,996.89
2022,05,25,06,17,996.83
2022,05,25,06,18,995.77
2022,05,25,06,19,995.77
2022,05,25,06,20,991.77
2022,05,25,06,21,991.77
2022,05,25,06,22,991.77
2022,05,25,06,23,991.77
2022,05,25,06,24,991.77
2022,05,25,06,25,991.77
2022,05,25,06,26,991.77
2022,05,25,06,27,992.13
2022,05,25,06,28,998.95
2022,05,25,06,29,998.95
2022,05,25,06,30,998.95
2022,05,25,06,31,998.95
2022,05,25,06,32,998.95
2022,05,25,06,33,998.95
2022,05,25,06,34,998.95
2022,05,25,06,35,998.95
2022,05,25,06,36,998.95
2022,05,25,06,37,998.95
2022,05,25,06,38,998.95
2022,05,25,06,39,998.95
2022,05,25,06,40,998.95
2022,05,25,06,41,998.95
2022,05,25,06,42,998.95
2022,05,25,06,43,998.95
2022,05,25,06,44,998.98
2022,05,25,06,45,999.46
2022,05,25,06,46,999.46
2022,05,25,06,47,999.46
2022,05,25,06,48,999.46
2022,05,25,06,49,999.46
2022,05,25,06,50,999.46
2022,05,25,06,51,999.46
2022,05,25,06,52,999.46
2022,05,25,06,53,999.46
2022,05,25,06,54,999.46
2022,05,25,06,55,999.46
2022,05,25,06,56,999.46
2022,05,25,06,57,999.46
2022,05,25,06,58,999.46
2022,05,25,06,59,999.46
2022,05,25,07,00,999.46
2022,05,25,07,01,998.62
2022,05,25,07,02,982.70
2022,05,25,07,03,982.70
2022,05,25,07,04,982.70
2022,05,25,07,05,982.70
2022,05,25,07,06,982.70
2022,05,25,07,07,987.64
2022,05,25,07,08,987.98
2022,05,25,07,09,987.98
2022,05,25,07,10,981.85
2022,05,25,07,11,981.85
2022,05,25,07,12,985.74
2022,05,25,07,13,985.74
2022,05,25,07,14,985.74
2022,05,25,07,15,985.74
2022,05,25,07,16,985.74
2022,05,25,07,17,985.74
2022,05,25,07,18,988.15
2022,05,25,07,19,988.28
2022,05,25,07,20,988.28
2022,05,25,07,21,988.28
2022,05,25,07,22,988.51
2022,05,25,07,23,992.92
2022,05,25,07,24,992.92
2022,05,25,07,25,994.24
2022,05,25,07,26,994.24
2022,05,25,07,27,994.24
2022,05,25,07,28,994.24
2022,05,25,07,29,994.24
2022,05,25,07,30,994.24
2022,05,25,07,31,964.21
2022,05,25,07,32,964.21
2022,05,25,07,33,964.21
2022,05,25,07,34,964.21
2022,05,25,07,35,964.21
2022,05,25,07,36,964.21
2022,05,25,07,37,964.21
2022,05,25,07,38,964.21
2022,05,25,07,39,971.15
2022,05,25,07,40,971.15
2022,05,25,07,41,971.15
2022,05,25,07,42,971.15
2022,05,25,07,43,971.15
2022,05,25,07,44,971.15
2022,05,25,07,45,971.15
2022,05,25,07,46,971.15
2022,05,25,07,47,971.15
2022,05,25,07,48,971.15
2022,05,25,07,49,971.15
2022,05,25,07,50,971.15
2022,05,25,07,51,971.15
2022,05,25,07,52,971.15
2022,05,25,07,53,971.15
2022,05,25,07,54,975.08
2022,05,25,07,55,975.08
2022,05,25,07,56,975.08
2022,05,25,07,57,980.06
2022,05,25,07,58,980.06
2022,05,25,07,59,980.06
2022,05,25,08,00,980.06
2022,05,25,08,01,980.06
2022,05,25,08,02,971.96
2022,05,25,08,03,971.96
2022,05,25,08,04,976.53
2022,05,25,08,05,976.53
2022,05,25,08,06,972.40
2022,05,25,08,07,972.40
2022,05,25,08,08,972.40
2022,05,25,08,09,972.40
2022,05,25,08,10,963.53
2022,05,25,08,11,963.53
2022,05,25,08,12,963.53
2022,05,25,08,13,963.53
2022,05,25,08,14,963.53
2022,05,25,08,15,963.53
2022,05,25,08,16,963.53
2022,05,25,08,17,963.53
2022,05,25,08,18,963.53
2022,05,25,08,19,963.53
2022,05,25,08,20,963.53
2022,05,25,08,21,963.53
2022,05,25,08,22,963.53
2022,05,25,08,23,963.53
2022,05,25,08,24,963.53
2022,05,25,08,25,963.53
2022,05,25,08,26,963.53
2022,05,25,08,27,963.53
2022,05,25,08,28,956.28
2022,05,25,08,29,956.28
2022,05,25,08,30,956.28
2022,05,25,08,31,956.28
2022,05,25,08,32,966.95
2022,05,25,08,33,966.95
2022,05,25,08,34,966.95
2022,05,25,08,35,966.95
2022,05,25,08,36,966.95
2022,05,25,08,37,966.95
2022,05,25,08,38,966.95
2022,05,25,08,39,966.95
2022,05,25,08,40,966.95
2022,05,25,08,41,966.95
2022,05,25,08,42,966.95
2022,05,25,08,43,966.95
2022,05,25,08,44,966.95
2022,05,25,08,45,966.95
2022,05,25,08,46,966.95
2022,05,25,08,47,966.95
2022,05,25,08,48,966.95
2022,05,25,08,49,966.95
2022,05,25,08,50,966.95
2022,05,25,08,51,966.95
2022,05,25,08,52,966.95
2022,05,25,08,53,966.95
2022,05,25,08,54,966.95
2022,05,25,08,55,966.95
2022,05,25,08,56,966.95
2022,05,25,08,57,966.95
2022,05,25,08,58,966.95
2022,05,25,08,59,966.95
2022,05,25,09,00,966.95
2022,05,25,09,01,966.95
2022,05,25,09,02,966.95
2022,05,25,09,03,966.95
2022,05,25,09,04,966.95
2022,05,25,09,05,966.95
2022,05,25,09,06,966.95
2022,05,25,09,07,966.95
2022,05,25,09,08,966.95
2022,05,25,09,09,966.95
2022,05,25,09,10,966.95
2022,05,25,09,11,966.95
2022,05,25,09,12,966.95
2022,05,25,09,13,966.95
2022,05,25,09,14,966.95
2022,05,25,09,15,966.95
2022,05,25,09,16,966.95
2022,05,25,09,17,966.95
2022,05,25,09,18,966.95
2022,05,25,09,19,966.95
2022,05,25,09,20,966.95
2022,05,25,09,21,966.95
2022,05,25,09,22,966.95
2022,05,25,09,23,966.95
2022,05,25,09,24,966.95
2022,05,25,09,25,966.95
2022,05,25,09,26,966.95
2022,05,25,12,15,925.47
2022,05,25,12,16,925.47
2022,05,25,12,17,925.47
2022,05,25,12,18,925.47
2022,05,25,12,19,925.47
2022,05,25,12,20,925.47
2022,05,25,12,21,925.47
2022,05,25,12,22,925.47
2022,05,25,12,23,925.47
2022,05,25,12,24,925.47
2022,05,25,12,25,925.47
2022,05,25,12,26,925.47
2022,05,25,12,27,925.47
2022,05,25,12,28,925.47
2022,05,25,12,29,925.47
2022,05,25,12,30,925.47
2022,05,25,12,31,925.47
2022,05,25,12,32,925.47
2022,05,25,12,33,925.47
2022,05,25,12,34,925.47
2022,05,25,12,35,925.47
2022,05,25,12,36,925.47
2022,05,25,12,37,925.47
2022,05,25,12,38,925.47
2022,05,25,12,39,925.47
2022,05,25,12,40,925.47
2022,05,25,12,41,925.47
2022,05,25,12,42,925.47
2022,05,25,12,43,925.47
2022,05,25,12,44,925.47
2022,05,25,12,45,925.47
2022,05,25,12,46,925.47
2022,05,25,12,47,925.47
2022,05,25,12,48,925.47
2022,05,25,12,49,925.47
2022,05,25,12,50,925.47
2022,05,25,12,51,925.47
2022,05,25,12,52,925.47
2022,05,25,12,53,925.47
2022,05,25,12,54,925.47
2022,05,25,12,55,925.47
2022,05,25,12,56,925.47
2022,05,25,12,57,925.47
2022,05,25,12,58,925.47
2022,05,25,12,59,925.47
2022,05,25,13,00,925.47
2022,05,25,13,01,925.47
2022,05,25,13,02,925.47
2022,05,25,13,03,925.47
2022,05,25,13,04,925.47
2022,05,25,13,05,925.47
2022,05,25,13,06,925.47
2022,05,25,13,07,925.47
2022,05,25,13,08,925.47
2022,05,25,13,09,925.47
2022,05,25,13,10,925.47
2022,05,25,13,11,925.47
2022,05,25,13,12,925.47
2022,05,25,13,13,925.47
2022,05,25,13,14,925.47
2022,05,25,13,15,925.47
2022,05,25,13,16,925.47
2022,05,25,13,17,925.47
2022,05,25,13,18,925.47
2022,05,25,13,19,925.47
2022,05,25,13,20,925.47
2022,05,25,13,21,925.47
2022,05,25,13,22,925.47
2022,05,25,13,23,925.47
2022,05,25,13,24,925.47
2022,05,25,13,25,925.47
2022,05,25,13,26,925.47
2022,05,25,13,27,925.47
2022,05,25,13,28,925.47
2022,05,25,13,29,925.47
2022,05,25,13,30,925.47
2022,05,25,13,31,925.47
2022,05,25,13,32,925.47
2022,05,25,13,33,925.47
2022,05,25,13,34,925.47
2022,05,25,13,35,925.47
2022,05,25,13,36,925.47
2022,05,25,13,37,925.47
2022,05,25,13,38,925.47
2022,05,25,13,39,925.47
2022,05,25,13,40,925.47
2022,05,25,13,41,925.47
2022,05,25,13,42,925.47
2022,05,25,13,43,925.47
2022,05,25,13,44,925.47
2022,05,25,13,45,925.47
2022,05,25,13,46,925.47
2022,05,25,13,47,925.47
2022,05,25,13,48,925.47
2022,05,25,13,49,925.47
2022,05,25,13,50,925.47
2022,05,25,13,51,925.47
2022,05,25,13,52,925.47
2022,05,25,13,53,925.47
2022,05,25,13,54,925.47
2022,05,25,13,55,925.47
2022,05,25,13,56,925.47
2022,05,25,13,57,925.47
2022,05,25,13,58,925.47
2022,05,25,13,59,925.47
2022,05,25,14,00,925.47
2022,05,25,14,01,925.47
2022,05,25,14,02,925.47
2022,05,25,14,03,925.47
2022,05,25,14,04,925.47
2022,05,25,14,05,925.47
2022,05,25,14,06,925.47
2022,05,25,14,07,925.47
2022,05,25,14,08,925.47
2022,05,25,14,09,925.47
2022,05,25,14,10,925.47
2022,05,25,14,11,925.47
2022,05,25,14,12,925.47
2022,05,25,14,13,925.47
2022,05,25,14,14,925.47
2022,05,25,14,15,925.47
2022,05,25,14,16,925.47
2022,05,25,14,17,925.47
2022,05,25,14,18,925.47
2022,05,25,14,19,925.47
2022,05,25,14,20,925.47
2022,05,25,14,21,925.47
2022,05,25,14,22,925.47
2022,05,25,14,23,925.47
2022,05,25,14,24,925.47
2022,05,25,14,25,925.47
2022,05,25,14,26,925.47
2022,05,25,14,27,925.47
2022,05,25,14,28,925.47
2022,05,25,14,29,925.47
2022,05,25,14,30,925.47
2022,05,25,14,31,925.47
2022,05,25,14,32,925.47
2022,05,25,14,33,925.47
2022,05,25,14,34,925.47
2022,05,25,14,35,925.47
2022,05,25,14,36,925.47
2022,05,25,14,37,925.47
2022,05,25,14,38,925.47
2022,05,25,14,39,925.47
2022,05,25,14,40,925.47
2022,05,25,14,41,925.47
2022,05,25,14,42,925.47
2022,05,25,14,43,925.47
2022,05,25,14,44,925.47
2022,05,25,14,45,925.47
2022,05,25,14,46,925.47
2022,05,25,14,47,925.47
2022,05,25,14,48,925.47
2022,05,25,14,49,925.47
2022,05,25,14,50,925.47
2022,05,25,14,51,925.47
2022,05,25,14,52,925.47
2022,05,25,14,53,925.47
2022,05,25,14,54,925.47
2022,05,25,14,55,925.47
2022,05,25,14,56,925.47
2022,05,25,14,57,925.47
2022,05,25,14,58,925.47
2022,05,25,14,59,925.47
2022,05,25,15,00,925.47
2022,05,25,15,01,925.47
2022,05,25,15,02,925.47
2022,05,25,15,03,925.47
2022,05,25,15,04,925.47
2022,05,25,15,05,925.47
2022,05,25,15,06,925.47
2022,05,25,15,07,925.47
2022,05,25,15,08,925.47
2022,05,25,15,09,925.47
2022,05,25,15,10,925.47
2022,05,25,15,11,925.47
2022,05,25,15,12,925.47
2022,05,25,15,13,925.47
2022,05,25,15,14,925.47
2022,05,25,15,15,925.47
2022,05,25,15,16,925.47
2022,05,25,15,17,925.47
2022,05,25,15,18,925.47
2022,05,25,15,19,925.47
2022,05,25,15,20,925.47
2022,05,25,15,21,925.47
2022,05,25,15,22,925.47
2022,05,25,15,23,925.47
2022,05,25,15,24,925.47
2022,05,25,15,25,925.47
2022,05,25,15,26,925.47
2022,05,25,15,27,925.47
2022,05,25,15,28,925.47
2022,05,25,15,29,925.47
2022,05,25,15,30,925.47
2022,05,25,15,31,925.47
2022,05,25,15,32,925.47
2022,05,25,15,33,925.47
2022,05,25,15,34,925.47
2022,05,25,15,35,925.47
2022,05,25,15,36,925.47
2022,05,25,15,37,925.47
2022,05,25,15,38,925.47
2022,05,25,15,39,925.47
2022,05,25,15,40,925.47
2022,05,25,15,41,925.47
2022,05,25,15,42,925.47
2022,05,25,15,43,925.47
2022,05,25,15,44,925.47
2022,05,25,15,45,925.47
2022,05,25,15,46,925.47
2022,05,25,15,47,925.47
2022,05,25,15,48,925.47
2022,05,25,15,49,925.47
2022,05,25,15,50,925.47
2022,05,25,15,51,925.47
2022,05,25,15,52,925.47
2022,05,25,15,53,925.47
2022,05,25,15,54,925.47
2022,05,25,15,55,925.47
2022,05,25,15,56,925.47
2022,05,25,15,57,925.47
2022,05,25,15,58,925.47
2022,05,25,15,59,925.47
2022,05,25,16,00,925.47
2022,05,25,16,01,925.47
2022,05,25,16,02,925.47
2022,05,25,16,03,925.47
2022,05,25,16,04,925.47
2022,05,25,16,05,925.47
2022,05,25,16,06,925.47
2022,05,25,16,07,925.47
2022,05,25,16,08,925.47
2022,05,25,16,09,925.47
2022,05,25,16,10,925.47
2022,05,25,16,11,925.47
2022,05,25,16,12,925.47
2022,05,25,16,13,925.47
2022,05,25,16,14,925.47
2022,05,25,16,15,925.47
2022,05,25,16,16,925.47
2022,05,25,16,17,925.47
2022,05,25,16,18,925.47
2022,05,25,16,19,925.47
2022,05,25,16,20,925.47
2022,05,25,16,21,925.47
2022,05,25,16,22,925.47
2022,05,25,16,23,925.47
2022,05,25,16,24,925.47
2022,05,25,16,25,925.47
2022,05,25,16,26,925.47
2022,05,25,16,27,925.47
2022,05,25,16,28,925.47
2022,05,25,16,29,925.47
2022,05,25,16,30,925.47
2022,05,25,16,31,925.47
2022,05,25,16,32,925.47
2022,05,25,16,33,925.47
2022,05,25,16,34,925.47
2022,05,25,16,35,925.47
2022,05,25,16,36,925.47
2022,05,25,16,37,925.47
2022,05,25,16,38,925.47
2022,05,25,16,39,925.47
2022,05,25,16,40,925.47
2022,05,25,16,41,925.47
2022,05,25,16,42,925.47
2022,05,25,16,43,925.47
2022,05,25,16,44,925.47
2022,05,25,16,45,925.47
2022,05,25,16,46,925.47
2022,05,25,16,47,925.47
2022,05,25,16,48,925.47
2022,05,25,16,49,925.47
2022,05,25,16,50,925.47
2022,05,25,16,51,925.47
2022,05,25,16,52,925.47
2022,05,25,16,53,925.47
2022,05,25,16,54,925.47
2022,05,25,16,55,925.47
2022,05,25,16,56,925.47
2022,05,25,16,57,925.47
2022,05,25,16,58,925.47
2022,05,25,16,59,925.47
2022,05,25,17,00,925.47
2022,05,25,17,01,925.47
2022,05,25,17,02,925.47
2022,05,25,17,03,925.47
2022,05,25,17,04,925.47
2022,05,25,17,05,925.47
2022,05,25,17,06,925.47
2022,05,25,17,07,925.47
2022,05,25,17,08,925.47
2022,05,25,17,09,925.47
2022,05,25,17,10,925.47
2022,05,25,17,11,925.47
2022,05,25,17,12,925.47
2022,05,25,17,13,925.47
2022,05,25,17,14,925.47
2022,05,25,17,15,925.47
2022,05,25,17,16,925.47
2022,05,25,17,17,925.47
2022,05,25,17,18,925.47
2022,05,25,17,19,925.47
2022,05,25,17,20,925.47
2022,05,25,17,21,925.47
2022,05,25,17,22,925.47
2022,05,25,17,23,925.47
2022,05,25,17,24,925.47
2022,05,25,17,25,925.47
2022,05,25,17,26,925.47
2022,05,25,17,27,925.47
2022,05,25,17,28,925.47
2022,05,25,17,29,925.47
2022,05,25,17,30,925.47
2022,05,25,17,31,925.47
2022,05,25,17,32,925.47
2022,05,25,17,33,925.47
2022,05,25,17,34,925.47
2022,05,25,17,35,925.47
2022,05,25,17,36,925.47
2022,05,25,17,37,925.47
2022,05,25,17,38,925.47
2022,05,25,17,39,925.47
2022,05,25,17,40,925.47
2022,05,25,17,41,925.47
2022,05,25,17,42,925.47
2022,05,25,17,43,925.47
2022,05,25,17,44,925.47
2022,05,25,17,45,925.47
2022,05,25,17,46,925.47
2022,05,25,17,47,925.47
2022,05,25,17,48,925.47
2022,05,25,17,49,925.47
2022,05,25,17,50,925.47
2022,05,25,17,51,925.47
2022,05,25,17,52,925.47
2022,05,25,17,53,925.47
2022,05,25,17,54,925.47
2022,05,25,17,55,925.47
2022,05,25,17,56,925.47
2022,05,25,17,57,925.47
2022,05,25,17,58,925.47
2022,05,25,17,59,925.47
2022,05,25,18,00,925.47
2022,05,25,18,01,925.47
2022,05,25,18,02,925.47
2022,05,25,18,03,925.47
2022,05,25,18,04,925.47
2022,05,25,18,05,925.47
2022,05,25,18,06,925.47
2022,05,25,18,07,925.47
2022,05,25,18,08,925.47
2022,05,25,18,09,925.47
2022,05,25,18,10,925.47
2022,05,25,18,11,925.47
2022,05,25,18,12,925.47
2022,05,25,18,13,925.47
2022,05,25,18,14,925.47
2022,05,25,18,15,925.47
2022,05,25,18,16,925.47
2022,05,25,18,17,925.47
2022,05,25,18,18,925.47
2022,05,25,18,19,925.47
2022,05,25,18,20,925.47
2022,05,25,18,21,925.47
2022,05,25,18,22,925.47
2022,05,25,18,23,925.47
2022,05,25,18,24,925.47
2022,05,25,18,25,925.47
2022,05,25,18,26,925.47
2022,05,25,18,27,925.47
2022,05,25,18,28,925.47
2022,05,25,18,29,925.47
2022,05,25,18,30,925.47
2022,05,25,18,31,925.47
2022,05,25,18,32,925.47
2022,05,25,18,33,925.47
2022,05,25,18,34,925.47
2022,05,25,18,35,925.47
2022,05,25,18,36,925.47
2022,05,25,18,37,925.47
2022,05,25,18,38,925.47
2022,05,25,18,39,925.47
2022,05,25,18,40,925.47
2022,05,25,18,41,925.47
2022,05,25,18,42,925.47
2022,05,25,18,43,925.47
2022,05,25,18,44,925.47
2022,05,25,18,45,925.47
2022,05,25,18,46,925.47
2022,05,25,18,47,925.47
2022,05,25,18,48,925.47
2022,05,25,18,49,925.47
2022,05,25,18,50,925.47
2022,05,25,18,51,925.47
2022,05,25,18,52,925.47
2022,05,25,18,53,925.47
2022,05,25,18,54,925.47
2022,05,25,18,55,925.47
2022,05,25,18,56,925.47
2022,05,25,18,57,925.47
2022,05,25,18,58,925.47
2022,05,25,18,59,925.47
2022,05,25,19,00,925.47
2022,05,25,19,01,925.47
2022,05,25,19,02,925.47
2022,05,25,19,03,925.47
2022,05,25,19,04,925.47
2022,05,25,19,05,925.47
2022,05,25,19,06,925.47
2022,05,25,19,07,925.47
2022,05,25,19,08,925.47
2022,05,25,19,09,925.47
2022,05,25,19,10,925.47
2022,05,25,19,11,925.47
2022,05,25,19,12,925.47
2022,05,25,19,13,925.47
2022,05,25,19,14,925.47
2022,05,25,19,15,925.47
2022,05,25,19,16,925.47
2022,05,25,19,17,925.47
2022,05,25,19,18,925.47
2022,05,25,19,19,925.47
2022,05,25,19,20,925.47
2022,05,25,19,21,925.47
2022,05,25,19,22,925.47
2022,05,25,19,23,925.47
2022,05,25,19,24,925.47
2022,05,25,19,25,925.47
2022,05,25,19,26,925.47
2022,05,25,19,27,925.47